www.pogodaiklimat.ru

Погода и климат >> Архив погоды >> Панама >> Давид


ПОГОДА в Давиде

  • Прогноз погоды в Давиде
  • Монитор погоды в Давиде

АРХИВ ПОГОДЫ в Давиде

Время (UTC), дата Ветер
(напр.,м/с)
 
Видим.   Явления Облачность Т
(С)
Тd
(С)
f
(%)
Тe
(С)
Тes
(С)
Комфортность P
(гПа)
Po
(гПа)
Тmin
(С)
Tmax
(С)
R
(мм)
R24
(мм)
S
(см)
21 11.09 Ю 6 20 км осадки на расстоянии 8/5 450 м
[Cb cap Ci fib]
+30.6 +24.3 69 +43 +44 опасность
перегрева
1008.0 1005.7
12 12.09 З 3 8000 м в посл. час дождь {гроза} 10/3 300 м
[Cb cap As op]
+25.6 +25.1 97 +37 +37 очень
душно
1007.3 1004.2 +25.5 +31.8 1
15 12.09 штиль 0 15 км осадки на расстоянии 10/4 450 м
[Cu med, cong As op]
+27.0 +25.7 93 +40 +42 очень
душно
1009.6 1006.5
18 12.09 Ю 3 8000 м слаб. дождь 10/6 450 м
[Cu med, cong As op]
+26.3 +25.1 93 +38 +39 очень
душно
1009.8 1006.7 +25.5 1
21 12.09 В 2 15 км {дождь} 10/1 450 м
[Cu med, cong As op]
+26.6 +24.4 88 +37 +39 очень
душно
1008.0 1004.9
00 13.09 З 2 20 км {дождь} 10/1 300 м
[St As op]
+25.6 +24.2 92 +35 +35 очень
душно
1006.3 1003.2 +25.5 +27.2 0.1
12 13.09 С 2 2000 м дымка 10/1 50 м
[Cu med, cong Ac und Cs]
+24.0 +23.4 96 +32 +32 очень
душно
1008.9 1005.8 +23.6 +27.2
15 13.09 штиль 0 20 км 10/1 450 м
[Cu med, cong Ac As]
+28.0 +23.6 77 +38 +43 очень
душно
1009.9 1006.8
18 13.09 штиль 0 20 км 10/5 450 м
[Cu med, cong Ac As]
+29.8 +24.6 74 +42 +47 опасность
перегрева
1009.2 1006.1 +23.6 +30.2
21 13.09 Ю 4 20 км 10/6 450 м
[Cu med, cong Ac As]
+28.0 +24.4 81 +39 +40 очень
душно
1008.0 1004.9
00 14.09 ЮЗ 3 15 км осадки на расстоянии 10/4 450 м
[Cu med, cong Ac As]
+26.8 +24.3 86 +37 +37 очень
душно
1008.2 1005.1 +23.6 +30.2
12 14.09 штиль 0 20 км осадки на расстоянии 9/3 450 м
[Cu med, cong As op Ci fib]
+25.0 +23.9 94 +34 +34 очень
душно
1009.0 1005.9 +24.8 +30.2
15 14.09 ЮЗ 2 20 км осадки на расстоянии 8/5 450 м
[Cb cap Ac trans Ci fib]
+29.6 +24.4 74 +42 +47 опасность
перегрева
1009.7 1006.6
18 14.09 ЮЗ 6 15 км осадки на расстоянии 10/4 450 м
[Cb cap Ac trans Cs]
+30.9 +24.2 68 +43 +45 опасность
перегрева
1009.5 1006.4 +24.0 +31.4
21 14.09 ЮЗ 7 15 км осадки на расстоянии 10/8 450 м
[Cu med, cong Ac As]
+27.8 +24.8 84 +40 +40 очень
душно
1008.2 1005.1
00 15.09 штиль 0 9000 м слаб. ливневой дождь, в посл. час гроза 10/3 300 м
[Cb cap As op]
+26.6 +26.0 97 +40 +40 очень
душно
1009.3 1006.2 +24.8 +31.8 0.5
12 15.09 штиль 0 20 км осадки на расстоянии 10/3 450 м
[Cu med, cong As op]
+24.2 +23.4 95 +32 +33 очень
душно
1009.4 1006.3 +24.0 +31.8 0.3
15 15.09 штиль 0 9000 м осадки на расстоянии 8/3 450 м
[Cb cap As op Ci fib]
+24.8 +24.6 99 +35 +43 очень
душно
1010.7 1007.6
18 15.09 штиль 0 20 км в посл. час дождь 10/1 450 м
[Cu med, cong As op]
+27.2 +24.7 86 +39 +44 очень
душно
1009.8 1006.7 +24.0 +28.5 0.6
21 15.09 Ю 2 9000 м слаб. дождь 10/5 450 м
[Cu med, cong As op]
+27.2 +24.7 86 +39 +39 очень
душно
1009.3 1006.2
00 16.09 штиль 0 9000 м слаб. дождь 10/4 300 м
[Cu med, cong As op]
+23.4 +22.4 94 +32 +32 очень
душно
1011.3 1008.2 +22.8 +28.5 11
12 16.09 штиль 0 9000 м осадки на расстоянии 10/5 450 м
[Cb cap As op]
+22.4 +21.5 95 +30 +30 очень
душно
1010.5 1007.1 +22.0 +28.5 6
15 16.09 штиль 0 20 км осадки на расстоянии 8/3 450 м
[Cb cap Ac trans Ci fib]
+27.4 +22.9 76 +36 +45 очень
душно
1012.4 1009.3
18 16.09 Ю 3 20 км осадки на расстоянии 10/1 450 м
[Cu med, cong As op]
+28.4 +21.9 68 +37 +40 очень
душно
1011.7 1008.6 +22.0 +29.2
21 16.09 Ю 2 8000 м слаб. дождь 10/6 300 м
[Sc As op]
+26.1 +24.2 89 +36 +37 очень
душно
1009.8 1006.7
00 17.09 штиль 0 15 км осадки на расстоянии 10/1 300 м
[Cu med, cong Ac As Cs]
+25.2 +24.1 94 +35 +35 очень
душно
1009.8 1006.7 +22.0 +29.2 0.2
12 17.09 штиль 0 20 км осадки на расстоянии 5/3 450 м
[Cb cap Ac trans Ci fib]
+24.2 +23.4 95 +32 +33 очень
душно
1010.9 1007.8 +24.2 +29.2
15 17.09 С 2 20 км осадки на расстоянии 5/3 450 м
[Cb cap Ac trans Ci fib]
+29.6 +23.5 70 +40 +48 очень
душно
1012.0 1008.9
18 17.09 Ю 8 20 км осадки на расстоянии 8/5 450 м
[Cb cap Ci fib]
+31.2 +23.2 63 +42 +43 опасность
перегрева
1011.4 1007.8 +24.2 +32.0
21 17.09 Ю 4 20 км осадки на расстоянии 10/5 450 м
[Cb cap Ac trans Ci fib]
+28.8 +25.0 80 +42 +43 опасность
перегрева
1009.4 1006.3
00 18.09 С 6 7000 м гроза, ливневой дождь 10/5 450 м
[Cb cap As op]
+24.2 +23.8 98 +33 +33 очень
душно
1010.6 1007.5 +24.2 +32.0 7
12 18.09 штиль 0 20 км осадки на расстоянии 8/4 450 м
[Cu med, cong Ac As Ci fib]
+23.0 +22.4 96 +31 +32 очень
душно
1010.3 1007.2 +23.0 +32.0 2
15 18.09 Ю 2 20 км 6/4 450 м
[Cu med, cong Ac trans Ci fib]
+29.0 +23.5 72 +39 +46 очень
душно
1011.6 1008.5
18 18.09 Ю 3 20 км 6/3 450 м
[Cu med, cong Cs]
+31.2 +25.2 70 +45 +56 опасность
перегрева
1010.6 1007.5 +23.0 +32.0

 

Местоположение метеостанции Давид (Панама): широта 8.40 долгота -82.41 высота над уровнем моря 26 м.

В архиве по умолчанию представлена погода в Давиде за последнюю неделю. Архивные данные за месяц целиком и за предыдущие месяцы, начиная с января 2011 года, Вы можете получить, выбрав интересующий диапазон дат из раскрывающегося списка и нажав кнопку "Ввод!".


*Определитесь, кто Вы:
робот инопланетянин человек

Внимание! Время в таблицах - всемирное. Для получения местного времени необходимо прибавить поправку, которая равна -5 ч.

Смотрите также архив погоды в соседних городах и на ближайших метеорологических станциях:

Погода в Сантьяго (Панама) (165 км)
Погода в Пуэрто-Лимоне (Коста-Рика) (191 км)
Погода в Сан-Хосе аэропорту (Коста-Рика) (257 км)
Погода в Сан-Хосе (Коста-Рика) (264 км)
Погода в Либерии (Коста-Рика) (413 км)
Погода в Блуфилдсе (Никарагуа) (427 км)
Погода на Острове Сан-Андрес (Колумбия) (471 км)
Погода в Ривасе (Никарагуа) (503 км)
Погода в Хуигальпе (Никарагуа) (524 км)
Погода на Острове Провиденсия (Колумбия) (565 км)

Пояснения к столбцам:

Ветер - указаны скорость ветра в м/с - средняя за 10 мин, порывы в срок и между сроками (в фигурных скобках) и направление, откуда дует ветер: С - северный, СВ - северо-восточный, В - восточный, ЮВ - юго-восточный, Ю - южный, ЮЗ - юго-западный, З - западный, СЗ - северо-западный.
Видимость - горизонтальная дальность видимости в метрах или километрах. При видимости от 1 до 10 км при отсутствии осадков обычно наблюдается дымка, при ухудшении видимости до 1 км и менее - туман. В сухую погоду видимость может ухудшаться дымом, пылью или мглою.
Явления - указаны атмосферные явления, наблюдавшиеся в срок или в последний час перед сроком; фигурными скобками обозначены явления, наблюдавшиеся между сроками (за 1-3 часа до срока); квадратными скобками обозначены град или гололедные отложения с указанием их диаметра в мм.
Облачность - указаны через наклонную черту общая и нижняя облачность в баллах и высота нижней границы облаков в метрах; квадратными скобками обозначены формы облаков: Ci - перистые, Cs - перисто-слоистые, Cc - перисто-кучевые, Ac - высококучевые, As - высокослоистые, Sc - слоисто-кучевые, Ns - слоисто-дождевые, Cu - кучевые, Cb - кучево-дождевые. Подробнее классификацию облаков см. в Атласе облаков (PDF).
T - Температура воздуха - температура, измеренная на высоте 2 м над землей.
Td - Температура точки росы - температура, при понижении до которой содержащийся в воздухе водяной пар достигнет насыщения.
f - Относительная влажность воздуха - влажноcть воздуха, измеренная на высоте 2 м над землей.
Te - Эффективная температура - температура, которую ощущает одетый по сезону человек в тени. Характеристика душности погоды. При расчете учитывается влияние влажности воздуха и скорости ветра на теплоощущения человека.
Tes - Эффективная температура на солнце - температура, которую ощущает человек, с поправкой на солнечный нагрев. Характеристика знойности погоды. Зависит от высоты солнца над горизонтом, облачности и скорости ветра. Ночью, в пасмурную погоду, а также при ветре 12 м/с и более поправка равна нулю.
P - Атмосферное давление - приведенное к уровню моря атмосферное давление.
Po - Атмосферное давление - измеренное на уровне метеостанции атмосферное давление.
Tmin - Минимальная температура - минимум температуры воздуха на высоте 2 м над землей.
Tmax - Максимальная температура - максимум температуры воздуха на высоте 2 м над землей.
R - Количество осадков - Количество выпавших осадков за период времени, мм. При наведении курсора мыши на число - период времени, за который выпало указанное количество осадков.
R24 - Количество осадков - Количество выпавших осадков за 24 часа, мм.
S - Снежный покров - Высота снежного покрова, см. При наведении курсора мыши на число - состояние снежного покрова и степень покрытия местности в баллах.